| |
Missouri Department of Transportation

Social Media Facebook Twitter Flickr Blog YouTube RSS

Current AWOS Information

 
AWOS Home - General Info for all Airports
Current AWOS for all Airports - Current METAR for all Airports
Glossary - Disclaimer - Other Links


NEVADA--NEVADA MUNICIPAL--KNVD
 
Recent AWOS History
 
12/20/14     06:32 AM CST      12:32 GMT
Air Temperature 35°F (2°C ) 1st Cloud Layer Overcast at 600 feet
Dew Point 35°F (2°C) 2nd Cloud Layer  
Barometric Pressure 30.23 in Hg. 3rd Cloud Layer  
Wind Speed 0 mph (0 knots) Density Altitude  
Peak Wind Gusts   Variable Wind Directions  
Wind Direction   Variable Visibility  
Visibility 5 statute miles  

Thunderstorm and Precipitation Identification:  Mist
Thunderstorm Remarks: 

Current METAR Record: METAR KNVD 201237Z AUTO 00000KT 5SM BR OVC006 02/02 A3023 RMK AO2

 

 

 

About Us
How Do I...
Contact Us
Missouri Department of Transportation
Central Office
105 W. Capitol Avenue
Jefferson City, MO 65102
1-888-ASK-MODOT (275-6636)
1-866-831-6277 (Motor Carrier Services)
Drivers License Offices
horz_bar
| | |
Missouri State Government
© 2013 Missouri Department of Transportation. All Rights Reserved.   Privacy Policy.
 
 
 
 
RSS FeedYoutubeBlogFlickrTwitter Facebook